User: anonymous   Login
Location: Unspecified
(0.0000°N, 0.0000°E)
Time: 10:20:30
(UTC+00:00)
Language:

COSMOS 2439 - Orbit

View from above orbital plane
View from above orbital plane
View from above satellite
View from above satellite

Ground track
Ground track

The orbit data is extracted from the following two-line orbital elements,

1 32956U 08025D   17080.86928290 +.00000009 +00000-0 -52821-5 0  9993
2 32956 082.5055 295.0573 0021235 116.6241 243.7014 12.42999256400573
Epoch (UTC): 21 March 2017 20:51:46
Eccentricity: 0.0021235
inclination: 82.5055°
perigee height: 1477 km
apogee height: 1510 km
right ascension of ascending node: 295.0573°
argument of perigee: 116.6241°
revolutions per day: 12.42999256
mean anomaly at epoch: 243.7014°
orbit number at epoch: 40057

The dashed part of the orbit path shows where the satellite is in the earth's shadow,  

DLR